Regional Weather Roundup
Issued by NWS

Home | Current Version | Previous Version | Text Only | Print | Product List | Glossary Off
Versions: 1 2 3 4 5 6 7 8 9 10 11 12 13 14 15 16 17 18 19 20 21 22 23 24 25 26 27 28 29 30 31 32 33 34 35 36 37 38 39 40 41 42 43 44 45 46 47 48 49 50

000
ASUS43 KMKX 190811
RWRWI

WISCONSIN REGIONAL WEATHER ROUNDUP
NATIONAL WEATHER SERVICE MILWAUKEE/SULLIVAN WI
300 AM CDT THU OCT 19 2017

NOTE: "FAIR" INDICATES FEW OR NO CLOUDS BELOW 12,000 FEET WITH NO
SIGNIFICANT WEATHER AND/OR OBSTRUCTIONS TO VISIBILITY.

WIZ001-002-006>008-014>016-023>028-190900-
NORTHWEST WISCONSIN

CITY           SKY/WX    TMP DP  RH WIND       PRES   REMARKS
SUPERIOR ARPT  CLOUDY    46  24  41 SW10      29.93S
ASHLAND        CLOUDY    48  22  35 SW12      29.92R
HAYWARD        CLOUDY    41  26  55 S6        29.97R
SIREN          PTCLDY    46  26  46 W5        30.00R
CUMBERLAND     CLOUDY    41  28  60 SW6       30.00S
RICE LAKE      CLOUDY    44  28  54 W3        30.02R
CHETEK         CLOUDY    42  29  61 S6        30.01S
LADYSMITH      CLOUDY    43  28  54 SW6       30.00S
EAU CLAIRE     CLOUDY    44  29  55 SW7       30.01S
MENOMONIE      CLOUDY    48  30  50 W3        30.02S
NEW RICHMOND   CLOUDY    41  32  68 CALM      30.02S
OSCEOLA        CLOUDY    41  32  70 CALM      30.04S
$$

WIZ003>005-009-010-017-018-190900-
NORTH CENTRAL WISCONSIN

CITY           SKY/WX    TMP DP  RH WIND       PRES   REMARKS
MANITOWISH WTR CLOUDY    46  19  34 W7        29.93R
ARBOR VITAE    PTCLDY    47  20  35 W6        29.93R
WOODRUFF       PTCLDY    47  20  35 W6        29.93R
RHINELANDER    CLOUDY    44  22  41 W9        29.94S
EAGLE RIVER    CLOUDY    47  16  28 W10       29.92R
LAND O LAKES   CLOUDY    45  18  33 W3        29.93R
PHILLIPS       CLOUDY    44  23  44 CALM      29.96S
TOMAHAWK       CLOUDY    45  19  36 W5        29.96R
MEDFORD        CLOUDY    44  25  47 W6        29.98S
MERRILL        CLOUDY    44  25  46 W8        29.97R
$$

WIZ029-030-035-036-043>047-190900-
CENTRAL WISCONSIN

CITY           SKY/WX    TMP DP  RH WIND       PRES   REMARKS
WAUSAU         CLOUDY    46  26  45 W8        29.97R
MOSINEE        PTCLDY    43  28  56 W8        30.00R
MARSHFIELD     CLOUDY    44  27  51 W7        30.00R
STEVENS POINT  CLOUDY    49  26  40 W6        30.00S
WAUPACA        CLOUDY    54  24  32 W6        29.99S
WAUTOMA        CLOUDY    50  27  40 W5        30.02R
WISC RAPIDS    CLOUDY    49  26  41 W6        30.02R
CAMP DOUGLAS   CLOUDY    44  28  53 W7        30.03R
$$

WIZ011>013-019>022-031-037>040-048>050-190900-
NORTHEAST WISCONSIN

CITY           SKY/WX    TMP DP  RH WIND       PRES   REMARKS
ANTIGO         CLOUDY    45  24  43 W7        29.96R
SHAWANO        CLOUDY    54  25  32 W5        29.96R
OCONTO         CLOUDY    55  22  27 W9        29.94R
STURGEON BAY   CLOUDY    57  35  43 W10       29.93R
GREEN BAY      CLOUDY    53  33  46 W12       29.97R
MANITOWOC      CLOUDY    57  35  43 W9        29.97R
APPLETON       CLOUDY    50  27  40 W8        29.97R
CLINTONVILLE   NOT AVBL
OSHKOSH        PTCLDY    53  28  38 W8        30.00R
$$

WIZ032>034-041-042-053>061-190900-
SOUTHWEST WISCONSIN

CITY           SKY/WX    TMP DP  RH WIND       PRES   REMARKS
LA CROSSE      CLOUDY    46  38  73 CALM      30.05R
SPARTA         CLOUDY    39  32  77 CALM      30.05S
VIROQUA        CLOUDY    48  30  49 NW6       30.05R
BOSCOBEL       CLOUDY    43  40  89 CALM      30.06R FOG
PRAIRIE DU CHI CLOUDY    50  37  60 CALM      30.06R
PLATTEVILLE    CLOUDY    52  48  85 CALM      30.06R
$$

WIZ056-057-062-063-064-067-068-190900-
SOUTH CENTRAL WISCONSIN

CITY           SKY/WX    TMP DP  RH WIND       PRES   REMARKS
REEDSBURG      CLOUDY    52  29  42 W3        30.04R
BARABOO/DELLS  CLOUDY    51  25  36 NW3       30.04R
LONE ROCK      CLOUDY    49  38  65 VRB3      30.05R
MINERAL POINT  CLOUDY    52  45  76 NW5       30.05R
MADISON        CLOUDY    52  45  77 N3        30.03R
MIDDLETON      CLOUDY    54  37  52 NW5       30.05R
WATERTOWN      CLOUDY    53  47  78 W5        30.03R
MONROE         CLOUDY    52  45  76 W10       30.04S
JANESVILLE     CLOUDY    54  45  71 W5        30.04R
$$

WIZ051-052-058>065-066-070>072-190900-
SOUTHEAST WISCONSIN

CITY           SKY/WX    TMP DP  RH WIND       PRES   REMARKS
MILWAUKEE      CLOUDY    60  45  57 W9        30.00R
WAUKESHA       CLOUDY    54  43  66 W12       30.02R
MILWAUKEE/TIMM CLOUDY    55  41  58 W8        30.01R
RACINE         CLEAR     58  45  62 W9        30.02R
BURLINGTON     PTCLDY    54  46  73 SW8       30.02R
KENOSHA        CLEAR     57  44  62 W10       30.01R
FOND DU LAC    CLOUDY    54  31  41 W7        30.01R
SHEBOYGAN      PTCLDY    57  41  55 W15G22    29.97R
WEST BEND      CLOUDY    55  41  58 W10G17    30.00R
JUNEAU         CLOUDY    54  28  36 NW3       30.04R
$$

LSZ147-162-190900-
LAKE SUPERIOR

STATION/POSITION TIME  TEMP    WIND        PRES    WAVE
                       AIR SEA DIR/SP/G            HT/PER
                 (UTC) (F)     (DEG/KT/KT) (MB)    (FT/S)
W MID LAKE BUOY  0750   54 52              1008.9R   6/ 6
DEVILS ISLAND    0800   54     250/ 26/ 33 1011.2R
SAXON HARBOR     0730   53     200/  7/ 13 1012.5R
$$

LMZ867-665-643>646-190900-
LAKE MICHIGAN

STATION/POSITION TIME  TEMP    WIND        PRES    WAVE
                       AIR SEA DIR/SP/G            HT/PER
                 (UTC) (F)     (DEG/KT/KT) (MB)    (FT/S)
S GREEN BAY BUOY 0800   59 58  280/ 17/ 21 1013.7
N MID LAKE BUOY  0750   60 58  270/ 19/ 23 1011.7R   7/ 7
NORTHPORT PIER   0740   59     290/  7/ 12 1012.2R
KEWAUNEE LAKESHO 0748   57     290/  7/ 12 1013.1R
SHEBOYGAN LAKESH 0800   60     280/ 12/ 16 1014.7R
PORT WASHINGTON  0740   61     280/ 10/ 17 1015.9R
MILWAUKEE LAKESH 0750   61     270/ 12/ 16   N/A
S MID LAKE BUOY  0750   62 61  260/ 17/ 19 1015.7R   4/ 6
KENOSHA   LAKESH 0800   60     250/ 11/ 16 1016.3
$$

TC  - TEMPERATURE IN CELSIUS
VSB - VISIBILITY IN STATUTE MILES
WCI - WIND CHILL INDEX
HX  - HEAT INDEX




USA.gov is the U.S. government's official web portal to all federal, state and local government web resources and services.